Weather History for Warrenton, VA

Change the Weather History Date:

Sunday, September 16, 2012

  Actual Average (KHEF) Record (KHEF)
Temperature  
Mean Temperature 63 °F -  
Max Temperature 77 °F 76 °F 93 °F (1998)
Min Temperature 49 °F 54 °F 39 °F (2001)
Degree Days  
Heating Degree Days 2    
Growing Degree Days 13 (Base 50)    
Moisture  
Dew Point 56 °F    
Average Humidity 82    
Maximum Humidity 100    
Minimum Humidity 49    
Precipitation  
Precipitation 0.00 in - - ()
Sea Level Pressure  
Sea Level Pressure 30.14 in    
Wind  
Wind Speed 1 mph (SSW)    
Max Wind Speed 8 mph    
Max Gust Speed -    
Visibility 8 miles    
Events Fog    
Averages and records for this station are not official NWS values.
T = Trace of Precipitation, MM = Missing Value Source: NWS Daily Summary

Daily Weather History Graph

Daily Weather History Graph

Search for Another Location

Airport:

Trip Planner

Search our weather history database for the weather conditions in past years. The results will help you decide how hot, cold, wet, or windy it might be!

Date:

Astronomy

Sep. 16, 2012 Rise Set
Actual Time 6:53 AM EDT 7:16 PM EDT
Civil Twilight 6:27 AM EDT 7:43 PM EDT
Nautical Twilight 5:55 AM EDT 8:14 PM EDT
Astronomical Twilight 5:23 AM EDT 8:46 PM EDT
Moon 7:29 AM EDT (9/16) 7:21 PM EDT (9/16)
Length of Visible Light 13h 16m
Length of Day
12h 23m
New Moon, 0% of the Moon is Illuminated
Sep 16
New Moon
Sep 22
First Quarter
Sep 29
Full
Oct 8
Last Quarter
Oct 15
New

Hourly Weather History & Observations

Time (EDT) Temp. Dew Point Humidity Pressure Visibility Wind Dir Wind Speed Gust Speed Precip Events Conditions
12:15 AM 52.9 °F 52.9 °F 100% 30.16 in 10.0 mi Calm Calm - N/A   Clear
12:35 AM 52.7 °F 52.7 °F 100% 30.16 in 10.0 mi Calm Calm - N/A   Clear
12:55 AM 51.8 °F 51.8 °F 100% 30.16 in 7.0 mi Calm Calm - N/A   Clear
1:15 AM 50.2 °F 50.2 °F 100% 30.16 in 0.5 mi Calm Calm - N/A Fog Fog
1:35 AM 51.3 °F 51.3 °F 100% 30.16 in 10.0 mi Calm Calm - N/A   Clear
1:55 AM 51.3 °F 51.3 °F 100% 30.16 in 0.8 mi Calm Calm - N/A   Mist
2:15 AM 50.5 °F 50.5 °F 100% 30.16 in 10.0 mi Calm Calm - N/A   Clear
2:35 AM 51.6 °F 51.6 °F 100% 30.16 in 7.0 mi Calm Calm - N/A   Clear
2:55 AM 50.4 °F 50.4 °F 100% 30.15 in 7.0 mi Calm Calm - N/A   Clear
3:15 AM 49.3 °F 49.3 °F 100% 30.15 in 0.5 mi Calm Calm - N/A Fog Fog
3:35 AM 49.1 °F 49.1 °F 100% 30.15 in 2.0 mi Calm Calm - N/A   Clear
3:55 AM 49.6 °F 49.6 °F 100% 30.15 in 3.0 mi Calm Calm - N/A   Clear
4:15 AM 50.2 °F 50.2 °F 100% 30.15 in 1.5 mi Calm Calm - N/A   Mist
4:35 AM 50.2 °F 50.2 °F 100% 30.15 in 7.0 mi Calm Calm - N/A   Clear
4:55 AM 51.1 °F 51.1 °F 100% 30.15 in 10.0 mi Calm Calm - N/A   Clear
5:15 AM 52.0 °F 52.0 °F 100% 30.15 in 7.0 mi Calm Calm - N/A   Clear
5:35 AM 52.2 °F 52.2 °F 100% 30.15 in 7.0 mi Calm Calm - N/A   Clear
5:55 AM 51.8 °F 51.8 °F 100% 30.15 in 10.0 mi Calm Calm - N/A   Clear
6:15 AM 52.5 °F 52.5 °F 100% 30.15 in 10.0 mi Calm Calm - N/A   Scattered Clouds
6:35 AM 52.7 °F 52.7 °F 100% 30.16 in 10.0 mi Calm Calm - N/A   Scattered Clouds
6:55 AM 52.9 °F 52.9 °F 100% 30.18 in 10.0 mi Calm Calm - N/A   Clear
7:15 AM 52.3 °F 52.3 °F 100% 30.18 in 7.0 mi Calm Calm - N/A   Clear
7:35 AM 52.7 °F 52.7 °F 100% 30.18 in 10.0 mi Calm Calm - N/A   Clear
8:15 AM 55.4 °F 55.4 °F 100% 30.17 in 10.0 mi Calm Calm - N/A   Clear
8:35 AM 59.0 °F 58.3 °F 97% 30.18 in 10.0 mi Calm Calm - N/A   Clear
8:55 AM 61.5 °F 59.0 °F 91% 30.18 in 10.0 mi Calm Calm - N/A   Clear
9:15 AM 62.4 °F 59.7 °F 91% 30.18 in 10.0 mi Calm Calm - N/A   Mostly Cloudy
9:35 AM 65.5 °F 60.3 °F 83% 30.18 in 10.0 mi Calm Calm - N/A   Scattered Clouds
9:55 AM 68.0 °F 60.1 °F 76% 30.19 in 10.0 mi Calm Calm - N/A   Scattered Clouds
10:15 AM 71.1 °F 60.3 °F 69% 30.18 in 10.0 mi Calm Calm - N/A   Scattered Clouds
10:35 AM 71.8 °F 59.9 °F 66% 30.18 in 10.0 mi NNW 3.5 mph - N/A   Scattered Clouds
10:55 AM 73.0 °F 59.9 °F 63% 30.18 in 10.0 mi SW 3.5 mph - N/A   Clear
11:15 AM 73.4 °F 58.6 °F 60% 30.17 in 10.0 mi SW 3.5 mph - N/A   Clear
11:35 AM 75.0 °F 59.7 °F 59% 30.17 in 10.0 mi SW 4.6 mph - N/A   Mostly Cloudy
11:55 AM 74.1 °F 58.6 °F 58% 30.16 in 10.0 mi Calm Calm - N/A   Scattered Clouds
12:15 PM 75.2 °F 58.1 °F 55% 30.16 in 10.0 mi South 3.5 mph - N/A   Mostly Cloudy
12:35 PM 75.4 °F 56.8 °F 52% 30.16 in 10.0 mi SSW 3.5 mph - N/A   Overcast
12:55 PM 75.2 °F 56.1 °F 51% 30.15 in 10.0 mi West 3.5 mph - N/A   Scattered Clouds
1:15 PM 75.7 °F 56.3 °F 51% 30.15 in 10.0 mi WSW 3.5 mph - N/A   Clear
1:35 PM 75.6 °F 56.8 °F 52% 30.14 in 10.0 mi Calm Calm - N/A   Clear
1:55 PM 77.0 °F 57.0 °F 50% 30.13 in 10.0 mi WNW 3.5 mph - N/A   Clear
2:15 PM 77.2 °F 56.7 °F 49% 30.12 in 10.0 mi SW 5.8 mph - N/A   Clear
2:35 PM 76.5 °F 57.0 °F 51% 30.12 in 10.0 mi SSW 4.6 mph - N/A   Scattered Clouds
2:55 PM 75.4 °F 58.3 °F 55% 30.12 in 10.0 mi South 8.1 mph - N/A   Mostly Cloudy
3:15 PM 74.8 °F 58.5 °F 57% 30.11 in 10.0 mi SSE 4.6 mph - N/A   Mostly Cloudy
3:35 PM 75.4 °F 59.4 °F 57% 30.11 in 10.0 mi SW 5.8 mph - N/A   Mostly Cloudy
3:55 PM 75.2 °F 60.3 °F 60% 30.10 in 10.0 mi SSE 6.9 mph - N/A   Scattered Clouds
4:15 PM 74.7 °F 60.1 °F 60% 30.09 in 10.0 mi SSE 4.6 mph - N/A   Scattered Clouds
4:35 PM 75.2 °F 60.3 °F 60% 30.09 in 10.0 mi SSE 5.8 mph - N/A   Clear
4:55 PM 75.9 °F 60.3 °F 58% 30.09 in 10.0 mi South 5.8 mph - N/A   Clear
5:15 PM 76.3 °F 58.8 °F 55% 30.09 in 10.0 mi SSW 4.6 mph - N/A   Scattered Clouds
5:35 PM 73.0 °F 58.5 °F 60% 30.08 in 10.0 mi SSW 4.6 mph - N/A   Clear
5:55 PM 74.5 °F 59.5 °F 60% 30.08 in 10.0 mi South 5.8 mph - N/A   Clear
6:15 PM 73.8 °F 59.5 °F 61% 30.09 in 10.0 mi South 5.8 mph - N/A   Clear
6:35 PM 72.7 °F 59.9 °F 64% 30.09 in 10.0 mi South 4.6 mph - N/A   Clear
6:55 PM 70.7 °F 59.9 °F 69% 30.09 in 10.0 mi South 4.6 mph - N/A   Clear
7:15 PM 68.7 °F 59.9 °F 73% 30.10 in 10.0 mi Calm Calm - N/A   Clear
7:35 PM 67.1 °F 59.5 °F 77% 30.09 in 10.0 mi SSE 3.5 mph - N/A   Clear
7:55 PM 63.7 °F 59.0 °F 85% 30.10 in 10.0 mi Calm Calm - N/A   Clear
8:15 PM 62.1 °F 58.8 °F 89% 30.10 in 10.0 mi Calm Calm - N/A   Clear
8:35 PM 57.9 °F 56.5 °F 95% 30.11 in 10.0 mi Calm Calm - N/A   Clear
8:55 PM 57.4 °F 57.2 °F 99% 30.10 in 10.0 mi Calm Calm - N/A   Clear
9:15 PM 56.5 °F 56.5 °F 100% 30.11 in 10.0 mi Calm Calm - N/A   Clear
9:35 PM 56.5 °F 56.5 °F 100% 30.11 in 10.0 mi Calm Calm - N/A   Clear
9:55 PM 55.2 °F 55.2 °F 100% 30.11 in 10.0 mi Calm Calm - N/A   Clear
10:15 PM 53.4 °F 53.4 °F 100% 30.11 in 5.0 mi Calm Calm - N/A   Clear
10:35 PM 54.9 °F 54.9 °F 100% 30.12 in 7.0 mi Calm Calm - N/A   Clear
10:55 PM 52.7 °F 52.7 °F 100% 30.12 in 4.0 mi Calm Calm - N/A   Clear
11:15 PM 52.3 °F 52.3 °F 100% 30.12 in 4.0 mi Calm Calm - N/A   Clear
11:35 PM 51.1 °F 51.1 °F 100% 30.12 in 0.8 mi Calm Calm - N/A   Mist
11:55 PM 52.7 °F 52.7 °F 100% 30.12 in 1.0 mi Calm Calm - N/A   Mist